Regional Weather Roundup
Issued by NWS

Home | Current Version | Previous Version | Graphics & Text | Print | Product List | Glossary On
Versions: 1 2 3 4 5 6 7 8 9 10 11 12 13 14 15 16 17 18 19 20 21 22 23 24 25 26 27
000
ASUS45 KBOI 200310
RWRID

IDAHO REGIONAL WEATHER ROUNDUP
NATIONAL WEATHER SERVICE BOISE ID
900 PM MDT THU OCT 19 2017

NOTE: "FAIR" INDICATES FEW OR NO CLOUDS BELOW 12000 FEET
WITH NO SIGNIFICANT WEATHER AND/OR OBSTRUCTIONS TO VISIBILITY

IDZ012-014-200400-
SOUTHWEST IDAHO


CITY           SKY/WX    TMP DP  RH WIND       PRES   REMARKS
BOISE          MOCLDY    61  14  16 CALM      29.57F
CALDWELL       MOCLDY    61  22  22 SE8       29.55F
MOUNTAIN HOME  PTCLDY    57  15  19 S8        29.60S
$$

IDZ016-017-200400-
SOUTHCENTRAL IDAHO


CITY           SKY/WX    TMP DP  RH WIND       PRES   REMARKS
BURLEY         CLEAR     61  18  18 S17       29.68S
JEROME         CLEAR     56  23  27 NE9       29.67F
TWIN FALLS     CLEAR     60  20  21 S14       29.67F
$$

IDZ019>023-200400-
SOUTHEAST IDAHO


CITY           SKY/WX    TMP DP  RH WIND       PRES   REMARKS
IDAHO FALLS    CLEAR     55  23  28 SW5       29.76F
POCATELLO      CLEAR     63  16  16 S25G33    29.73F
REXBURG        CLEAR     54  21  27 S9        29.76F
$$

IDZ006-010-011-018-031-032-200400-
CENTRAL IDAHO MOUNTAINS


CITY           SKY/WX    TMP DP  RH WIND       PRES   REMARKS
MCCALL         CLOUDY    49  20  31 CALM      29.62F
HAILEY         PTCLDY    48  21  34 NW9       29.75F
STANLEY          N/A     45  15  30 SE8       29.74F
SALMON         CLOUDY    53  20  27 SE5       29.58F
CHALLIS        CLEAR     56  15  20 SE8       29.66S
$$

IDZ002-004-006-007-026-200400-
NORTHERN IDAHO


CITY           SKY/WX    TMP DP  RH WIND       PRES   REMARKS
LEWISTON       CLOUDY    58  40  51 MISG      29.51R
LOWELL           N/A     48  46  93 NW3       29.50F
COEUR D`ALENE  CLOUDY    52  45  77 E5        29.53F
MULLAN PASS    CLOUDY    45  26  47 SW9       29.57F
$$




USA.gov is the U.S. government's official web portal to all federal, state and local government web resources and services.